カタログに戻る

COSMOS 2251 DEB

運用中LEO
NORAD 33995·DEBRIS·🇷🇺 Russia

打ち上げ Jun 16, 1993 から Plesetsk Cosmodrome

Loading…

次のパス (今後24時間)

TLE

最新Source: Space-Track

元期: Sep 13, 2026, 14:43 UTC

1 33995U 93036GE  26256.61365386  .00001296  00000-0  44664-3 0  9994
2 33995  74.0620 335.9415 0061688 282.3799  77.0454 14.35874807914636

AllMySatでCOSMOS 2251 DEBをリアルタイム追跡

Download on the App Store